Location: Canyam�s
(41.5996°N, 2.4450°E)
Time: 21:35:26
(UTC+00:00)

Hubble Space Telescope - Visible Passes

Search period start: 10 August 2020 00:00
Search period end: 20 August 2020 00:00
Orbit: 536 x 540 km, 28.5° (Epoch: 10 August)

Date Brightness Start Highest point End Pass type
(mag) Time Alt. Az. Time Alt. Az. Time Alt. Az.
12 Aug 3.1 03:53:44 10° S 03:54:55 11° S 03:56:06 10° SSE visible
13 Aug 3.0 03:42:56 11° S 03:44:04 12° S 03:45:39 10° SSE visible
14 Aug 2.9 03:32:50 12° S 03:33:13 13° S 03:35:02 10° SSE visible
15 Aug 2.9 03:22:46 13° S 03:22:46 13° S 03:24:18 10° SSE visible
16 Aug 3.1 03:12:46 12° SSE 03:12:46 12° SSE 03:13:29 10° SSE visible
